Погода в Ингольштадте

Германия     48°45′46″N   11°25′30″E
темп.,
°C
ветер,
м/с
пор.,
м/с
влажн.,
%
обл.,
%
осадки,
мм/ч
давл.,
гПа
погр.,
м
16 мая, вс
вс1623:00+8зюз5129394 0.2 1008609
02:00+8зюз4119368 0.3 1008450
05:00+6юз3109788 0.0 1009290
08:00+8юз41092100 0.1 1009611
11:00+12юз687556 0.6 10081171
14:00+14зюз6773100 3.3 10061212
17:00+13зюз4777100 0.8 1006818
20:00+11юз3987100 1.8 1005382
17 мая, пн
пн1723:00+9юз41196100 2.3 1007453
02:00+9зюз41293100 4.8 1007673
05:00+8зюз5129380 0.1 1008467
08:00+8юз6118989 0.2 1010925
11:00+9зюз7128599 0.5 10111093
14:00+12з81273100 1.1 10101577
17:00+12з8127738 0.9 10111590
20:00+9з611845 1.4 1012643
18 мая, вт
вт1823:00+6юз4129314 0.1 1014341
02:00+7зюз5149185 0.1 1013478
05:00+7зюз6149289 0.0 1013582
08:00+8зюз6129287 1.1 1014817
11:00+8з81193100 0.9 10161132
14:00+9з7128878 1.7 10171084
17:00+9з81386100 0.4 10171240
20:00+8з61188100 0.8 10191011
19 мая, ср
ср1923:00+8з71389100 1.1 1020764
02:00+7зюз6148781 1.3 1021603
05:00+7зюз6119275 0.1 1021516
08:00+7зюз5790100 0.1 1022487
11:00+10зюз8881100 0.7 10211304
14:00+8зюз71089100 1.1 1022999
17:00+7з5119097 0.1 1023791
20:00+9зюз48866 0.2 1023349
20 мая, чт
чт2023:00+5юз38965 0.0 1025158
02:00+4юз37975 0.0 1025139
05:00+3юз359698 0.0 102490
08:00+7юз348577 0.0 1023247
11:00+13юз346793 0.0 10211062
14:00+16зюз485321 0.0 10181736
17:00+16з5961100 0.0 10151466
20:00+13ю35765 0.0 101391